Location: Pic du Midi - T1M
(42.9366°N, 0.1426°E)
Time: 09:39:31
(UTC+01:00)

X-37B - Pass Details

Date: 24 June 2021
Orbit: 383 x 392 km, 45.0° (Epoch: 01 July)

Event Time Altitude Azimuth Distance (km) Brightness Sun altitude
Rises 22:05:51 0° 243° (WSW) 2,241 4.6 -12.3°
Reaches altitude 10° 22:07:55 10° 240° (WSW) 1,390 3.5 -12.5°
Maximum altitude 22:11:00 64° 159° (SSE) 424 0.5 -12.9°
Drops below altitude 10° 22:14:07 10° 77° (ENE) 1,395 3.1 -13.2°
Enters shadow 22:15:02 - 75° (ENE) 1,772 3.7 -13.3°
